Hourly Data Report for September 06, 2017

All times are specified in Local Standard Time (LST). Add 1 hour to adjust for Daylight Saving Time where and when it is observed.

ST. STEPHEN
NEW BRUNSWICK

45°12'36.600" N
67°15'10.300" W
26.10 m
8104935
71607
WSS

Download Data

Hourly Data (September 2017)
Hourly Data Report for September 6, 2017
Temp Definition
°C
Dew Point Temp Definition
°C
Rel Hum Definition
%
Wind Dir Definition
10's deg

Wind Spd Definition
km/h
Visibility Definition
km
Stn Press Definition
kPa
Hmdx Definition


Wind Chill Definition


Weather Definition


TIME
00:00 18.6 17.0 91 16 8   100.75     LegendNANA
01:00 18.9 16.9 88 20 8   100.79     LegendNANA
02:00 19.1 17.2 89 18 11   100.75     LegendNANA
03:00 18.8 17.0 90 18 11   100.77     LegendNANA
04:00 18.8 17.0 89 19 9   100.81     LegendNANA
05:00 18.9 17.1 89 21 11   100.89     LegendNANA
06:00 18.7 17.2 91 19 6   100.93     LegendNANA
07:00 18.8 17.3 91 14 6   101.02     LegendNANA
08:00 18.4 17.4 94 13 6   101.00     LegendNANA
09:00 18.5 17.2 92 14 4   101.08     LegendNANA
10:00 18.8 17.4 92 16 5   101.11     LegendNANA
11:00 19.4 17.4 88 17 10   101.13     LegendNANA
12:00 20.0 17.7 87 17 7   101.16 26   LegendNANA
13:00 20.8 18.1 84 14 6   101.09 27   LegendNANA
14:00 20.4 18.1 87 11 7   101.05 26   LegendNANA
15:00 18.5 17.1 92 11 8   101.04     LegendNANA
16:00 18.0 17.2 95 13 5   101.11     LegendNANA
17:00 18.7 17.8 95 16 10   101.10     LegendNANA
18:00 18.9 17.7 93 16 7   101.11     LegendNANA
19:00 18.6 17.6 94 16 5   101.10     LegendNANA
20:00 18.4 17.5 95 14 5   101.15     LegendNANA
21:00 18.2 17.4 95 13 6   101.10     LegendNANA
22:00 18.4 17.6 95 13 5   101.12     LegendNANA
23:00 18.7 18.0 96 15 9   101.08     LegendNANA

Notes on Data Quality.

Legend

  • E = Estimated
  • M = Missing
  • NA = Not Available
  • ‡ = Partner data that is not subject to review by the National Climate Archives
Date modified: